ONEWEB-0293 (49082 NORAD) Tracking and Keplerian Element Data

This shows tracking and keplerian element data for the satellite.

Feedback or suggestion? Click here.




ElementValue
Catalog49082
NameONEWEB-0293
Epoch Orbit363
Epoch Day261.91667824
Epoch Year2021
RAAN356.5242
Inclination87.4178
Eccentricity0.0021973
Argument of Perigee190.2071
Mean Anonmoly70.9673
Mean Motion15.15688965
Decay Rate-0.01011522
L11 49082U 21075H 21261.91667824 -.01011522 00000-0 -57436-1 0 9993
L22 49082 87.4178 356.5242 0021973 190.2071 70.9673 15.15688965 3637

Live tracking and technical data element details for ONEWEB-0293 (NORAD 49082). ONEWEB-0293 can be tracked NOW for your location showing map with azimuth and elevation plus other details from your city location.

Track the satellite on the map from your city or location and see movement details for azimuth, elevation, latitude, longitude, range, height, and movement on the map or in text.







IsCatalogInMostPopularTable: catalog: 49082, numindb: 4
Update: records affected: 1



GetName: 49082 ONEWEB-0293

Hit Count: updated at: Fri, 24 Sep 2021 17:15:52 GMT